Петрич, Иван Янев, ТХ 28.09.2022 Measurements

Back to Overview

Timestamp Temperature Humidity
5/4/2026 5:45:05 PM 23,8 C 28.0%
5/4/2026 5:38:01 PM 23,8 C 28.0%
5/4/2026 5:31:05 PM 23,7 C 29.0%
5/4/2026 5:23:56 PM 23,7 C 29.0%
5/4/2026 5:17:00 PM 23,6 C 29.0%
5/4/2026 5:02:51 PM 23,4 C 28.0%
5/4/2026 4:55:49 PM 23,3 C 29.0%
5/4/2026 4:48:53 PM 23,3 C 28.0%
5/4/2026 4:41:44 PM 23,3 C 29.0%
5/4/2026 4:34:48 PM 23,2 C 29.0%
5/4/2026 4:27:40 PM 23,1 C 30.0%
5/4/2026 4:20:36 PM 22,8 C 32.0%
5/4/2026 4:13:34 PM 22,7 C 30.0%
5/4/2026 4:06:30 PM 22,4 C 32.0%
5/4/2026 3:59:27 PM 22,4 C 32.0%
5/4/2026 3:52:25 PM 22,5 C 31.0%
5/4/2026 3:45:22 PM 22,2 C 32.0%
5/4/2026 3:38:26 PM 21,9 C 33.0%
5/4/2026 3:31:17 PM 21,8 C 33.0%
5/4/2026 3:24:14 PM 21,6 C 34.0%
5/4/2026 3:17:18 PM 21,4 C 34.0%
5/4/2026 3:10:09 PM 21,1 C 34.0%
5/4/2026 3:03:06 PM 21,1 C 33.0%
5/4/2026 2:56:04 PM 21,0 C 35.0%
5/4/2026 2:49:03 PM 20,7 C 37.0%
5/4/2026 2:42:00 PM 20,5 C 38.0%
5/4/2026 2:34:57 PM 20,2 C 38.0%
5/4/2026 2:28:01 PM 19,9 C 37.0%
5/4/2026 2:13:48 PM 19,6 C 39.0%
5/4/2026 2:06:52 PM 19,2 C 41.0%
5/4/2026 1:59:56 PM 18,9 C 36.0%
5/4/2026 1:52:55 PM 18,7 C 39.0%
5/4/2026 1:45:51 PM 18,4 C 38.0%
5/4/2026 1:38:48 PM 18,2 C 39.0%
5/4/2026 1:31:45 PM 18,0 C 39.0%
5/4/2026 1:24:43 PM 17,8 C 40.0%
5/4/2026 1:17:42 PM 17,8 C 40.0%
5/4/2026 1:10:46 PM 17,5 C 41.0%
5/4/2026 1:03:37 PM 17,3 C 39.0%
5/4/2026 12:56:35 PM 17,0 C 41.0%
5/4/2026 12:49:31 PM 16,7 C 44.0%
5/4/2026 12:42:30 PM 16,6 C 42.0%
5/4/2026 12:35:27 PM 16,3 C 43.0%
5/4/2026 12:28:24 PM 15,8 C 42.0%
5/4/2026 12:21:20 PM 15,6 C 42.0%
5/4/2026 12:14:19 PM 15,4 C 43.0%
5/4/2026 12:07:16 PM 15,4 C 43.0%
5/4/2026 12:00:14 PM 15,3 C 40.0%
5/4/2026 11:53:13 AM 15,2 C 41.0%
5/4/2026 11:46:09 AM 14,9 C 42.0%
5/4/2026 11:39:08 AM 14,6 C 43.0%
5/4/2026 11:32:06 AM 14,5 C 44.0%
5/4/2026 11:25:05 AM 14,1 C 45.0%
5/4/2026 11:18:02 AM 13,9 C 47.0%
5/4/2026 11:10:59 AM 13,9 C 46.0%
5/4/2026 11:03:56 AM 13,5 C 46.0%
5/4/2026 10:56:53 AM 13,2 C 49.0%
5/4/2026 10:49:52 AM 12,9 C 49.0%
5/4/2026 10:42:56 AM 13,3 C 51.0%
5/4/2026 10:35:46 AM 12,9 C 51.0%
5/4/2026 10:28:43 AM 12,8 C 52.0%
5/4/2026 10:21:40 AM 12,4 C 54.0%
5/4/2026 10:14:37 AM 12,1 C 56.0%
5/4/2026 10:07:41 AM 11,5 C 57.0%
5/4/2026 10:00:33 AM 11,3 C 58.0%
5/4/2026 9:53:37 AM 10,9 C 59.0%
5/4/2026 9:46:29 AM 10,5 C 60.0%
5/4/2026 9:39:26 AM 10,6 C 60.0%
5/4/2026 9:32:23 AM 10,0 C 61.0%
5/4/2026 9:25:27 AM 9,8 C 59.0%
5/4/2026 9:18:16 AM 9,6 C 61.0%
5/4/2026 9:11:13 AM 9,6 C 61.0%
5/4/2026 9:04:17 AM 9,4 C 62.0%
5/4/2026 8:57:08 AM 8,7 C 64.0%
5/4/2026 8:50:12 AM 8,4 C 65.0%
5/4/2026 8:43:03 AM 8,2 C 67.0%
5/4/2026 8:36:07 AM 7,5 C 70.0%
5/4/2026 8:00:52 AM 4,3 C 75.0%
5/4/2026 7:53:49 AM 4,1 C 74.0%
5/4/2026 7:46:48 AM 4,0 C 73.0%
5/4/2026 7:39:47 AM 3,9 C 74.0%
5/4/2026 7:32:45 AM 3,7 C 73.0%
5/4/2026 7:25:43 AM 3,7 C 74.0%
5/4/2026 7:18:47 AM 3,6 C 74.0%
5/4/2026 7:11:39 AM 3,6 C 74.0%
5/4/2026 7:04:36 AM 3,5 C 74.0%
5/4/2026 6:57:32 AM 3,5 C 75.0%
5/4/2026 6:50:29 AM 3,3 C 73.0%
5/4/2026 6:43:25 AM 3,2 C 73.0%
5/4/2026 6:36:24 AM 3,2 C 73.0%
5/4/2026 6:29:20 AM 3,2 C 73.0%
5/4/2026 6:22:19 AM 3,3 C 74.0%
5/4/2026 6:15:16 AM 3,4 C 73.0%
5/4/2026 6:08:14 AM 3,6 C 73.0%
5/4/2026 6:01:11 AM 3,7 C 71.0%
5/4/2026 5:54:08 AM 4,0 C 72.0%
5/4/2026 5:47:05 AM 4,1 C 70.0%
5/4/2026 5:40:02 AM 4,3 C 71.0%
5/4/2026 5:33:00 AM 4,3 C 72.0%
5/4/2026 5:25:58 AM 4,4 C 71.0%
5/4/2026 5:18:56 AM 4,3 C 70.0%
5/4/2026 5:11:54 AM 4,5 C 70.0%
5/4/2026 5:04:51 AM 4,5 C 70.0%
5/4/2026 4:57:50 AM 4,6 C 70.0%
5/4/2026 4:50:47 AM 4,6 C 69.0%
5/4/2026 4:43:44 AM 4,7 C 68.0%
5/4/2026 4:36:42 AM 4,8 C 68.0%
5/4/2026 4:29:39 AM 4,8 C 69.0%
5/4/2026 4:22:38 AM 4,7 C 69.0%
5/4/2026 4:15:36 AM 4,8 C 69.0%
5/4/2026 4:08:33 AM 4,9 C 68.0%
5/4/2026 4:01:37 AM 4,9 C 69.0%
5/4/2026 3:54:26 AM 5,1 C 68.0%
5/4/2026 3:47:24 AM 5,2 C 67.0%
5/4/2026 3:40:21 AM 5,3 C 66.0%
5/4/2026 3:33:17 AM 5,4 C 66.0%
5/4/2026 3:26:14 AM 5,5 C 66.0%
5/4/2026 3:19:11 AM 5,5 C 66.0%
5/4/2026 3:12:08 AM 5,8 C 65.0%
5/4/2026 3:05:06 AM 6,0 C 64.0%
5/4/2026 2:58:04 AM 6,1 C 64.0%
5/4/2026 2:51:03 AM 6,3 C 64.0%
5/4/2026 2:44:00 AM 6,5 C 64.0%
5/4/2026 2:36:59 AM 6,7 C 61.0%
5/4/2026 2:29:57 AM 6,7 C 62.0%
5/4/2026 2:22:55 AM 6,8 C 61.0%
5/4/2026 2:15:53 AM 6,8 C 61.0%
5/4/2026 2:08:57 AM 6,8 C 62.0%
5/4/2026 2:01:47 AM 6,8 C 62.0%
5/4/2026 1:54:46 AM 6,9 C 62.0%
5/4/2026 1:47:42 AM 7,0 C 61.0%
5/4/2026 1:40:39 AM 7,2 C 61.0%
5/4/2026 1:33:38 AM 7,3 C 60.0%
5/4/2026 1:26:36 AM 7,2 C 60.0%
5/4/2026 1:19:35 AM 7,3 C 60.0%
5/4/2026 1:12:33 AM 7,3 C 59.0%
5/4/2026 1:05:29 AM 7,3 C 59.0%
5/4/2026 12:58:27 AM 7,3 C 59.0%
5/4/2026 12:51:24 AM 7,5 C 59.0%
5/4/2026 12:44:21 AM 7,6 C 59.0%
5/4/2026 12:37:25 AM 7,7 C 59.0%
5/4/2026 12:30:15 AM 7,8 C 60.0%
5/4/2026 12:23:13 AM 7,9 C 59.0%
5/4/2026 12:16:09 AM 8,0 C 59.0%
5/4/2026 12:09:06 AM 8,3 C 57.0%
5/4/2026 12:02:05 AM 8,5 C 57.0%